• în România
  • Lista ţărilor
  • Pe 7 zile
  • Temperatura apei
  • Hartă satelitară
  • Meteo pe hartă
  • Widget-uri
  • user-avatar
    Intrare

    Meteo pe oră la Carryduff

    Astăzi, 22 Mai, Marţi

    Timp Temperatura Precipitaţii Vânt Presiune Umiditate
    00:00 +11°C° 0 mm 3 m/s 760 mmHg 91%
    01:00 +11°C° 0 mm 3 m/s 760 mmHg 92%
    02:00 +11°C° 0 mm 3 m/s 760 mmHg 92%
    03:00 +10°C° 0 mm 3 m/s 760 mmHg 92%
    04:00 +11°C° 0 mm 3 m/s 761 mmHg 92%
    05:00 +11°C° 0 mm 3 m/s 761 mmHg 92%
    06:00 +12°C° 0 mm 3 m/s 761 mmHg 92%
    07:00 +13°C° 0 mm 3 m/s 761 mmHg 88%
    08:00 +14°C° 0 mm 4 m/s 761 mmHg 84%
    09:00 +15°C° 0 mm 4 m/s 761 mmHg 80%
    10:00 +18°C° 0 mm 4 m/s 761 mmHg 75%
    11:00 +19°C° 0 mm 4 m/s 762 mmHg 70%
    12:00 +20°C° 0 mm 4 m/s 762 mmHg 65%
    13:00 +20°C° 0 mm 4 m/s 762 mmHg 64%
    14:00 +21°C° 0 mm 4 m/s 762 mmHg 64%
    15:00 +21°C° 0 mm 4 m/s 762 mmHg 64%
    16:00 +21°C° 0 mm 4 m/s 762 mmHg 68%
    17:00 +20°C° 0 mm 3 m/s 762 mmHg 73%
    18:00 +20°C° 0 mm 3 m/s 762 mmHg 77%
    19:00 +18°C° 0 mm 3 m/s 763 mmHg 81%
    20:00 +16°C° 0 mm 3 m/s 763 mmHg 86%
    21:00 +14°C° 0 mm 3 m/s 764 mmHg 90%
    22:00 +13°C° 0 mm 4 m/s 764 mmHg 91%
    23:00 +12°C° 0 mm 4 m/s 764 mmHg 92%

    Mâine, 23 Mai, Miercuri

    Timp Temperatura Precipitaţii Vânt Presiune Umiditate
    00:00 +11°C° 0 mm 4 m/s 764 mmHg 93%
    01:00 +10°C° 0 mm 4 m/s 765 mmHg 93%
    02:00 +10°C° 0 mm 4 m/s 765 mmHg 94%
    03:00 +8°C° 0 mm 4 m/s 765 mmHg 94%
    04:00 +8°C° 0 mm 4 m/s 765 mmHg 93%
    05:00 +8°C° 0 mm 4 m/s 765 mmHg 92%
    06:00 +10°C° 0 mm 4 m/s 765 mmHg 90%
    07:00 +11°C° 0 mm 4 m/s 766 mmHg 86%
    08:00 +13°C° 0 mm 4 m/s 766 mmHg 82%
    09:00 +14°C° 0 mm 4 m/s 766 mmHg 78%
    10:00 +17°C° 0 mm 4 m/s 766 mmHg 75%
    11:00 +18°C° 0 mm 4 m/s 766 mmHg 73%
    12:00 +20°C° 0 mm 4 m/s 766 mmHg 71%
    13:00 +20°C° 0 mm 4 m/s 766 mmHg 70%
    14:00 +21°C° 0 mm 5 m/s 765 mmHg 70%
    15:00 +21°C° 0 mm 5 m/s 765 mmHg 70%
    16:00 +21°C° 0 mm 4 m/s 765 mmHg 73%
    17:00 +20°C° 0 mm 4 m/s 765 mmHg 76%
    18:00 +20°C° 0 mm 4 m/s 765 mmHg 78%
    19:00 +18°C° 0 mm 4 m/s 765 mmHg 83%
    20:00 +15°C° 0 mm 4 m/s 765 mmHg 87%
    21:00 +14°C° 0 mm 4 m/s 765 mmHg 91%
    22:00 +13°C° 0 mm 4 m/s 765 mmHg 91%
    23:00 +12°C° 0 mm 5 m/s 765 mmHg 91%

    Poimâine, 24 Mai, Joi

    Timp Temperatura Precipitaţii Vânt Presiune Umiditate
    00:00 +10°C° 0 mm 5 m/s 765 mmHg 91%
    01:00 +10°C° 0,1 mm 5 m/s 765 mmHg 90%
    02:00 +10°C° 0,1 mm 5 m/s 765 mmHg 88%
    03:00 +10°C° 0,1 mm 5 m/s 764 mmHg 87%
    04:00 +10°C° 0,1 mm 5 m/s 764 mmHg 88%
    05:00 +10°C° 0,1 mm 5 m/s 764 mmHg 89%
    06:00 +10°C° 0,1 mm 5 m/s 764 mmHg 90%
    07:00 +12°C° 0,2 mm 5 m/s 764 mmHg 90%
    08:00 +13°C° 0,2 mm 5 m/s 764 mmHg 90%
    09:00 +14°C° 0,2 mm 5 m/s 764 mmHg 89%
    10:00 +15°C° 0,1 mm 5 m/s 763 mmHg 89%
    11:00 +17°C° 0,1 mm 4 m/s 763 mmHg 89%
    12:00 +17°C° 0,1 mm 4 m/s 763 mmHg 89%
    13:00 +18°C° 0,7 mm 4 m/s 763 mmHg 89%
    14:00 +18°C° 0,7 mm 4 m/s 763 mmHg 90%
    15:00 +18°C° 0,7 mm 4 m/s 763 mmHg 90%
    16:00 +18°C° 1,7 mm 4 m/s 763 mmHg 91%
    17:00 +16°C° 1,7 mm 5 m/s 763 mmHg 92%
    18:00 +16°C° 1,7 mm 5 m/s 762 mmHg 93%
    19:00 +15°C° 1,2 mm 5 m/s 763 mmHg 94%
    20:00 +15°C° 1,2 mm 5 m/s 763 mmHg 94%
    21:00 +14°C° 1,2 mm 5 m/s 763 mmHg 95%
    22:00 +14°C° 1 mm 5 m/s 763 mmHg 95%
    23:00 +13°C° 1 mm 5 m/s 763 mmHg 95%

    25 Mai, Vineri

    Timp Temperatura Precipitaţii Vânt Presiune Umiditate
    00:00 +13°C° 1 mm 5 m/s 763 mmHg 95%
    01:00 +13°C° 0,3 mm 5 m/s 763 mmHg 95%
    02:00 +12°C° 0,3 mm 5 m/s 763 mmHg 95%
    03:00 +12°C° 0,3 mm 5 m/s 763 mmHg 96%
    04:00 +12°C° 0 mm 4 m/s 763 mmHg 96%
    05:00 +12°C° 0 mm 4 m/s 763 mmHg 95%
    06:00 +12°C° 0 mm 4 m/s 763 mmHg 95%
    07:00 +13°C° 0 mm 4 m/s 763 mmHg 94%
    08:00 +14°C° 0 mm 5 m/s 763 mmHg 92%
    09:00 +15°C° 0 mm 5 m/s 763 mmHg 91%
    10:00 +16°C° 0,1 mm 5 m/s 763 mmHg 87%
    11:00 +17°C° 0,1 mm 5 m/s 763 mmHg 84%
    12:00 +19°C° 0,1 mm 5 m/s 763 mmHg 80%
    13:00 +19°C° 0,1 mm 5 m/s 763 mmHg 80%
    14:00 +19°C° 0,1 mm 5 m/s 763 mmHg 79%
    15:00 +19°C° 0,1 mm 5 m/s 763 mmHg 79%
    16:00 +18°C° 0 mm 4 m/s 763 mmHg 81%
    17:00 +18°C° 0 mm 4 m/s 763 mmHg 83%
    18:00 +17°C° 0 mm 3 m/s 762 mmHg 85%
    19:00 +16°C° 0 mm 3 m/s 763 mmHg 88%
    20:00 +16°C° 0 mm 3 m/s 763 mmHg 91%
    21:00 +14°C° 0 mm 3 m/s 763 mmHg 94%
    22:00 +13°C° 0 mm 3 m/s 763 mmHg 95%
    23:00 +13°C° 0 mm 3 m/s 763 mmHg 95%

    26 Mai, Sâmbătă

    Timp Temperatura Precipitaţii Vânt Presiune Umiditate
    00:00 +13°C° 0 mm 3 m/s 763 mmHg 96%
    01:00 +13°C° 0 mm 4 m/s 763 mmHg 96%
    02:00 +13°C° 0 mm 4 m/s 763 mmHg 96%
    03:00 +14°C° 0 mm 4 m/s 763 mmHg 95%
    04:00 +14°C° 0 mm 5 m/s 763 mmHg 95%
    05:00 +14°C° 0 mm 5 m/s 763 mmHg 94%
    06:00 +14°C° 0 mm 5 m/s 763 mmHg 93%
    07:00 +15°C° 0 mm 5 m/s 763 mmHg 92%
    08:00 +15°C° 0 mm 6 m/s 764 mmHg 90%
    09:00 +16°C° 0 mm 6 m/s 764 mmHg 88%
    10:00 +17°C° 0 mm 6 m/s 764 mmHg 86%
    11:00 +19°C° 0 mm 6 m/s 763 mmHg 84%
    12:00 +20°C° 0 mm 6 m/s 763 mmHg 82%
    13:00 +20°C° 0,2 mm 6 m/s 763 mmHg 83%
    14:00 +21°C° 0,2 mm 7 m/s 763 mmHg 84%
    15:00 +21°C° 0,2 mm 7 m/s 762 mmHg 84%
    16:00 +20°C° 1 mm 7 m/s 762 mmHg 87%
    17:00 +20°C° 1 mm 7 m/s 762 mmHg 90%
    18:00 +19°C° 1 mm 6 m/s 761 mmHg 92%
    19:00 +18°C° 3,5 mm 7 m/s 761 mmHg 93%
    20:00 +17°C° 3,5 mm 8 m/s 761 mmHg 93%
    21:00 +17°C° 3,5 mm 8 m/s 761 mmHg 94%
    22:00 +17°C° 1,3 mm 8 m/s 761 mmHg 94%
    23:00 +16°C° 1,3 mm 7 m/s 761 mmHg 94%

    27 Mai, Duminică

    Timp Temperatura Precipitaţii Vânt Presiune Umiditate
    00:00 +16°C° 1,3 mm 7 m/s 761 mmHg 94%
    01:00 +16°C° 0,5 mm 7 m/s 760 mmHg 94%
    02:00 +16°C° 0,5 mm 6 m/s 760 mmHg 94%
    03:00 +16°C° 0,5 mm 6 m/s 760 mmHg 94%
    04:00 +17°C° 0,2 mm 6 m/s 760 mmHg 94%
    05:00 +17°C° 0,2 mm 5 m/s 760 mmHg 95%
    06:00 +17°C° 0,2 mm 5 m/s 760 mmHg 95%
    07:00 +19°C° 0 mm 5 m/s 760 mmHg 93%
    08:00 +20°C° 0 mm 5 m/s 760 mmHg 91%
    09:00 +21°C° 0 mm 5 m/s 760 mmHg 90%
    10:00 +22°C° 0 mm 5 m/s 760 mmHg 88%
    11:00 +23°C° 0 mm 4 m/s 760 mmHg 87%
    12:00 +25°C° 0 mm 4 m/s 760 mmHg 86%
    13:00 +25°C° 0 mm 4 m/s 760 mmHg 84%
    14:00 +26°C° 0 mm 4 m/s 760 mmHg 82%
    15:00 +26°C° 0 mm 4 m/s 759 mmHg 80%
    16:00 +26°C° 0,1 mm 4 m/s 759 mmHg 82%
    17:00 +25°C° 0,1 mm 4 m/s 759 mmHg 83%
    18:00 +25°C° 0,1 mm 4 m/s 759 mmHg 84%
    19:00 +22°C° 0,1 mm 5 m/s 759 mmHg 86%
    20:00 +21°C° 0,1 mm 5 m/s 759 mmHg 88%
    21:00 +20°C° 0,1 mm 5 m/s 759 mmHg 90%
    22:00 +19°C° 0 mm 5 m/s 759 mmHg 91%
    23:00 +17°C° 0 mm 5 m/s 759 mmHg 92%
    Arată mai mult